TimeAKDT,TemperatureF,Dew PointF,Humidity,Sea Level PressureIn,VisibilityMPH,Wind Direction,Wind SpeedMPH,Gust SpeedMPH,PrecipitationIn,Events,Conditions,WindDirDegrees,DateUTC
12:53 AM,46.9,39.0,74,29.83,10.0,Calm,Calm,-,N/A,,Clear,0,2013-09-05 08:53:00
1:53 AM,45.0,37.9,76,29.84,10.0,NE,4.6,-,N/A,,Clear,50,2013-09-05 09:53:00
2:53 AM,50.0,39.9,68,29.85,10.0,Calm,Calm,-,N/A,,Overcast,0,2013-09-05 10:53:00
3:53 AM,54.0,41.0,62,29.86,10.0,SE,6.9,-,N/A,,Overcast,130,2013-09-05 11:53:00
4:53 AM,55.0,41.0,59,29.87,10.0,SE,8.1,-,N/A,,Overcast,140,2013-09-05 12:53:00
5:53 AM,55.9,39.9,55,29.88,10.0,SSE,9.2,-,N/A,,Overcast,160,2013-09-05 13:53:00
6:53 AM,55.9,42.1,60,29.90,10.0,SE,9.2,17.3,N/A,,Overcast,140,2013-09-05 14:53:00
7:53 AM,55.9,41.0,57,29.91,10.0,South,6.9,-,N/A,,Overcast,170,2013-09-05 15:53:00
8:53 AM,55.0,45.0,69,29.94,10.0,SSW,8.1,-,N/A,,Overcast,200,2013-09-05 16:53:00
9:53 AM,55.0,44.1,67,29.96,10.0,South,5.8,-,N/A,,Overcast,170,2013-09-05 17:53:00
10:53 AM,55.0,45.0,69,29.98,10.0,SE,3.5,-,N/A,,Overcast,130,2013-09-05 18:53:00
11:53 AM,55.9,44.1,64,29.98,10.0,Variable,6.9,-,N/A,,Overcast,0,2013-09-05 19:53:00
12:53 PM,55.9,44.1,64,29.99,10.0,South,9.2,-,N/A,,Mostly Cloudy,190,2013-09-05 20:53:00
1:53 PM,59.0,42.1,53,30.01,10.0,SE,4.6,-,N/A,,Overcast,140,2013-09-05 21:53:00
2:53 PM,57.0,43.0,59,30.01,10.0,South,5.8,-,N/A,,Overcast,170,2013-09-05 22:53:00
3:53 PM,59.0,41.0,51,30.01,10.0,ESE,9.2,16.1,N/A,,Mostly Cloudy,120,2013-09-05 23:53:00
4:53 PM,59.0,39.9,49,30.00,10.0,ESE,10.4,18.4,N/A,,Overcast,110,2013-09-06 00:53:00
5:53 PM,57.9,41.0,53,30.00,10.0,SE,13.8,25.3,N/A,,Overcast,140,2013-09-06 01:53:00
6:53 PM,57.9,39.9,51,29.99,10.0,SE,8.1,-,N/A,,Mostly Cloudy,130,2013-09-06 02:53:00
7:53 PM,57.0,41.0,55,29.98,10.0,ESE,8.1,17.3,N/A,,Mostly Cloudy,120,2013-09-06 03:53:00
8:53 PM,55.0,42.1,62,29.99,10.0,Calm,Calm,-,N/A,,Mostly Cloudy,0,2013-09-06 04:53:00
9:53 PM,54.0,43.0,66,29.99,10.0,Calm,Calm,-,N/A,,Overcast,0,2013-09-06 05:53:00
10:53 PM,54.0,42.1,64,29.99,10.0,NNE,3.5,-,N/A,,Scattered Clouds,20,2013-09-06 06:53:00
11:53 PM,52.0,42.1,69,29.97,10.0,Calm,Calm,-,N/A,,Overcast,0,2013-09-06 07:53:00